This is the latest recevied weather packets stored in our database for station/object IR1ZYZ-3. If no packets are shown the sender has not sent any weather packets the latest 10 day(s).
| Time | Temp. | Humidity | Pressure | Rain* | Wind** | Luminosity | Snow |
|---|---|---|---|---|---|---|---|
| 1777695356 | 9.44° C | 89% | 1027.8 hPa | - | - | - | - |
| 1777694752 | 10° C | 88% | 1027.7 hPa | - | - | - | - |
| 1777694148 | 10° C | 85% | 1027.7 hPa | - | - | - | - |
| 1777693543 | 10° C | 86% | 1027.7 hPa | - | - | - | - |
| 1777692938 | 10° C | 88% | 1027.7 hPa | - | - | - | - |
| 1777692333 | 10° C | 88% | 1027.7 hPa | - | - | - | - |
| 1777691728 | 10° C | 89% | 1027.7 hPa | - | - | - | - |
| 1777691124 | 10° C | 89% | 1027.6 hPa | - | - | - | - |
| 1777691124 | 10° C | 89% | 1027.6 hPa | - | - | - | - |
| 1777690519 | 10° C | 88% | 1027.7 hPa | - | - | - | - |
| 1777690519 | 10° C | - | - | - | - | - | - |
| 1777689913 | 10.56° C | 90% | 1027.7 hPa | - | - | - | - |
| 1777689309 | 10.56° C | 88% | 1027.8 hPa | - | - | - | - |
| 1777688705 | 10.56° C | 85% | 1027.7 hPa | - | - | - | - |
| 1777688099 | 10.56° C | 85% | 1027.7 hPa | - | - | - | - |
| 1777687495 | 11.11° C | 81% | 1027.7 hPa | - | - | - | - |
| 1777686890 | 11.11° C | 76% | 1027.6 hPa | - | - | - | - |
| 1777686285 | 12.22° C | 74% | 1027.5 hPa | - | - | - | - |
| 1777685680 | 12.78° C | 73% | 1027.2 hPa | - | - | - | - |
| 1777685075 | 12.78° C | 73% | 1027.3 hPa | - | - | - | - |
| 1777684471 | 12.78° C | 73% | 1027.2 hPa | - | - | - | - |
| 1777683866 | 12.22° C | 73% | 1027.3 hPa | - | - | - | - |
| 1777683262 | 11.67° C | 75% | 1027.2 hPa | - | - | - | - |
| 1777682657 | 11.67° C | 78% | 1027.3 hPa | - | - | - | - |
| 1777682052 | 11.11° C | 78% | 1027.3 hPa | - | - | - | - |
* Rain since midnight (hover to see other rain measurements)
** Current wind speed in m/s (hover to see current wind gust speed)